Find Starlink 31636

NORAD ID: 59747 Int'l Des: 2024-090 Owner: SPXS Country: US Constellation: starlink operational
LEOCIRCULAR

当前视图

正在加载3D地球...

About Starlink 31636

Starlink 31636 (NORAD 59747) is a starlink constellation satellite (v2 mini) launched May 13, 2024 by SPXS of US. It operates in LEO, CIRCULAR orbit with a mass of 730.00 kg.

即将过境

Passes for default location (London). Set your location on the main map for personalized predictions.

高度历史

Loading altitude history...

两行轨道根数

1 59747U 24090T 26235.56572487 .00000450 00000-0 25882-4 0 9997
2 59747 43.0048 320.8951 0001244 262.5220 97.5490 15.27579070128964
Epoch: Aug 23, 2026 • Age: 20 hours

当前状态

高度 482.4 km
远地点 / 近地点 N/A
速度 7.63 km/s
星下点 14.27°N, 11.38°E
发射日期 May 13, 2024
运行时间 2.2 years
类型 internet

技术详情

分类 Payload
质量 730.00 kg
干质量 700.00 kg
总质量 730.00 kg
长度 0.30 m
直径 4.10 m
跨度 29.00 m
形状 Box + pan
制造商 SPXS
平台类型 Starlink V2M
阶段状态 In Orbit
所有者/国家 SPXS/US

Most Searched